LHA1631 EDDN-LSZR

Flight info

Callsign LHA1631
Flight time 0h 40m
Altitude 22000
Route BOLS1G BOLSI Y167 AKANU DCT LURER DCT NIKWU DCT KPT
Aircraft DH8D/M-SDE1E2FGIJ1RWYZ/S

Departure

Time 2026-05-07 11:30
Airport Nuremberg Airport (EDDN)

Arrival

Time 2026-05-07 12:10
Airport Sankt Gallen Altenrhein Airport (LSZR)
Time Latitude Longitude Altitude Speed Heading
2026-05-07 11:10 49.49600 11.08139 1052 ft 0 kts 188°
2026-05-07 11:26 49.49591 11.08137 1052 ft 3 kts 189°
2026-05-07 11:26 49.49551 11.08161 1052 ft 9 kts 117°
2026-05-07 11:26 49.49535 11.08277 1052 ft 12 kts 98°
2026-05-07 11:26 49.49587 11.08364 1052 ft 13 kts 15°
2026-05-07 11:27 49.49610 11.08488 1052 ft 14 kts 98°
2026-05-07 11:27 49.49594 11.08651 1052 ft 16 kts 98°
2026-05-07 11:27 49.49577 11.08830 1052 ft 17 kts 98°
2026-05-07 11:27 49.49559 11.09017 1052 ft 18 kts 99°
2026-05-07 11:28 49.49538 11.09214 1052 ft 18 kts 99°
2026-05-07 11:28 49.49543 11.09351 1052 ft 9 kts 26°
2026-05-07 11:28 49.49567 11.09388 1052 ft 3 kts 68°
2026-05-07 11:28 49.49575 11.09442 1052 ft 10 kts 69°
2026-05-07 11:29 49.49595 11.09490 1052 ft 0 kts 52°
2026-05-07 11:29 49.49609 11.09517 1052 ft 8 kts 51°
2026-05-07 11:29 49.49677 11.09560 1052 ft 13 kts 341°
2026-05-07 11:29 49.49696 11.09521 1052 ft 0 kts 283°
2026-05-07 11:30 49.49724 11.09232 1053 ft 77 kts 276°
2026-05-07 11:30 49.49841 11.08005 1211 ft 135 kts 275°
2026-05-07 11:30 49.49990 11.06537 1815 ft 148 kts 278°
2026-05-07 11:30 49.50152 11.05043 2709 ft 143 kts 275°
2026-05-07 11:31 49.50299 11.03408 3101 ft 166 kts 275°
2026-05-07 11:31 49.50465 11.01647 3769 ft 171 kts 276°
2026-05-07 11:31 49.50641 10.99834 4478 ft 174 kts 276°
2026-05-07 11:31 49.50822 10.98011 5170 ft 175 kts 276°
2026-05-07 11:32 49.51192 10.94330 6495 ft 178 kts 276°
2026-05-07 11:32 49.51214 10.92442 7152 ft 177 kts 253°
2026-05-07 11:32 49.50737 10.90720 7808 ft 178 kts 244°
2026-05-07 11:33 49.50210 10.89024 8453 ft 180 kts 244°
2026-05-07 11:33 49.49661 10.87259 9066 ft 184 kts 244°
2026-05-07 11:33 49.49098 10.85521 9782 ft 183 kts 239°
2026-05-07 11:33 49.48102 10.84360 10380 ft 190 kts 202°
2026-05-07 11:34 49.46745 10.83838 10550 ft 219 kts 197°
2026-05-07 11:34 49.45204 10.83341 10995 ft 230 kts 195°
2026-05-07 11:34 49.43623 10.82861 11567 ft 234 kts 195°
2026-05-07 11:34 49.42044 10.82391 12174 ft 237 kts 195°
2026-05-07 11:35 49.40433 10.81917 12802 ft 238 kts 196°
2026-05-07 11:35 49.38810 10.81440 13398 ft 240 kts 196°
2026-05-07 11:35 49.37164 10.80958 13983 ft 242 kts 197°
2026-05-07 11:35 49.35503 10.80472 14551 ft 244 kts 197°
2026-05-07 11:36 49.33837 10.79985 15095 ft 246 kts 197°
2026-05-07 11:36 49.32182 10.79502 15616 ft 248 kts 198°
2026-05-07 11:36 49.30487 10.79007 16124 ft 250 kts 198°
2026-05-07 11:36 49.28770 10.78507 16619 ft 251 kts 198°
2026-05-07 11:37 49.27067 10.78011 17101 ft 253 kts 198°
2026-05-07 11:37 49.25328 10.77505 17565 ft 255 kts 199°
2026-05-07 11:37 49.23602 10.77002 18008 ft 257 kts 199°
2026-05-07 11:37 49.21852 10.76492 18450 ft 258 kts 199°
2026-05-07 11:38 49.20088 10.75978 18878 ft 260 kts 200°
2026-05-07 11:38 49.18317 10.75462 19280 ft 262 kts 200°
2026-05-07 11:38 49.16507 10.74937 19688 ft 264 kts 200°
2026-05-07 11:38 49.14726 10.74420 20058 ft 266 kts 200°
2026-05-07 11:39 49.12914 10.73898 20422 ft 267 kts 200°
2026-05-07 11:39 49.11090 10.73372 20744 ft 269 kts 201°
2026-05-07 11:39 49.09237 10.72834 21013 ft 273 kts 201°
2026-05-07 11:39 49.07373 10.72293 21286 ft 276 kts 201°
2026-05-07 11:40 49.05477 10.71746 21553 ft 278 kts 201°
2026-05-07 11:40 49.03579 10.71200 21796 ft 282 kts 201°
2026-05-07 11:40 49.01644 10.70642 21956 ft 287 kts 201°
2026-05-07 11:40 48.99652 10.70065 22001 ft 293 kts 201°
2026-05-07 11:41 48.97646 10.69485 22012 ft 300 kts 201°
2026-05-07 11:41 48.95561 10.68883 22014 ft 307 kts 201°
2026-05-07 11:41 48.93440 10.68273 22014 ft 314 kts 201°
2026-05-07 11:41 48.91293 10.67657 22014 ft 319 kts 201°
2026-05-07 11:42 48.89120 10.67037 22010 ft 322 kts 200°
2026-05-07 11:42 48.86903 10.66407 22005 ft 322 kts 200°
2026-05-07 11:42 48.84702 10.65786 22005 ft 321 kts 200°
2026-05-07 11:42 48.82544 10.65176 22006 ft 320 kts 200°
2026-05-07 11:43 48.80363 10.64560 22004 ft 318 kts 200°
2026-05-07 11:43 48.78208 10.63950 22004 ft 315 kts 200°
2026-05-07 11:43 48.76046 10.63336 22004 ft 314 kts 201°
2026-05-07 11:43 48.73919 10.62730 22004 ft 312 kts 201°
2026-05-07 11:44 48.71802 10.62126 22003 ft 311 kts 201°
2026-05-07 11:44 48.69695 10.61526 22003 ft 309 kts 201°
2026-05-07 11:44 48.67587 10.60926 22002 ft 308 kts 201°
2026-05-07 11:44 48.65484 10.60328 22001 ft 307 kts 201°
2026-05-07 11:45 48.63388 10.59733 22000 ft 306 kts 201°
2026-05-07 11:45 48.61323 10.59148 22000 ft 305 kts 201°
2026-05-07 11:45 48.59359 10.58132 21992 ft 286 kts 219°
2026-05-07 11:45 48.57719 10.56553 21995 ft 282 kts 224°
2026-05-07 11:46 48.56092 10.54913 21998 ft 281 kts 224°
2026-05-07 11:46 48.54481 10.53279 22000 ft 280 kts 224°
2026-05-07 11:46 48.52866 10.51636 22001 ft 280 kts 224°
2026-05-07 11:46 48.51270 10.50012 22002 ft 279 kts 224°
2026-05-07 11:47 48.49664 10.48378 22001 ft 279 kts 224°
2026-05-07 11:47 48.48062 10.46747 22001 ft 279 kts 224°
2026-05-07 11:47 48.46455 10.45111 22001 ft 279 kts 224°
2026-05-07 11:47 48.44843 10.43471 22001 ft 278 kts 224°
2026-05-07 11:48 48.43240 10.41842 22001 ft 278 kts 224°
2026-05-07 11:48 48.41656 10.40232 22001 ft 278 kts 224°
2026-05-07 11:48 48.40049 10.38600 22001 ft 278 kts 224°
2026-05-07 11:48 48.38443 10.36971 22001 ft 278 kts 224°
2026-05-07 11:49 48.36842 10.35348 22001 ft 278 kts 224°
2026-05-07 11:49 48.35257 10.33741 22002 ft 278 kts 224°
2026-05-07 11:49 48.33640 10.32105 22000 ft 277 kts 224°
2026-05-07 11:49 48.32041 10.30487 22003 ft 279 kts 224°
2026-05-07 11:50 48.30436 10.28861 22003 ft 280 kts 224°
2026-05-07 11:50 48.28816 10.27223 22003 ft 282 kts 223°
2026-05-07 11:50 48.27186 10.25577 22003 ft 283 kts 223°
2026-05-07 11:50 48.25560 10.23938 22004 ft 284 kts 223°
2026-05-07 11:51 48.23918 10.22286 22016 ft 284 kts 223°
2026-05-07 11:51 48.22287 10.20646 22018 ft 284 kts 223°
2026-05-07 11:51 48.20643 10.18997 21738 ft 281 kts 223°
2026-05-07 11:51 48.19033 10.17384 21370 ft 281 kts 223°
2026-05-07 11:52 48.17406 10.15753 21035 ft 279 kts 223°
2026-05-07 11:52 48.15814 10.14156 20736 ft 278 kts 223°
2026-05-07 11:52 48.14220 10.12559 20436 ft 276 kts 223°
2026-05-07 11:52 48.12637 10.10973 20136 ft 274 kts 223°
2026-05-07 11:53 48.11053 10.09388 19840 ft 275 kts 223°
2026-05-07 11:53 48.09457 10.07790 19542 ft 276 kts 223°
2026-05-07 11:53 48.07858 10.06191 19245 ft 277 kts 223°
2026-05-07 11:53 48.06264 10.04598 18950 ft 278 kts 222°
2026-05-07 11:54 48.04646 10.02983 18650 ft 278 kts 222°
2026-05-07 11:54 48.03038 10.01379 18353 ft 279 kts 222°
2026-05-07 11:54 48.01435 9.99781 18056 ft 279 kts 222°
2026-05-07 11:54 47.99836 9.98189 17760 ft 279 kts 222°
2026-05-07 11:55 47.98219 9.96580 17461 ft 279 kts 221°
2026-05-07 11:55 47.96592 9.94961 17161 ft 279 kts 221°
2026-05-07 11:55 47.94990 9.93366 16820 ft 281 kts 221°
2026-05-07 11:55 47.93369 9.91753 16452 ft 283 kts 221°
2026-05-07 11:56 47.91741 9.90136 16083 ft 284 kts 221°
2026-05-07 11:56 47.90099 9.88507 15713 ft 285 kts 221°
2026-05-07 11:56 47.88459 9.86881 15341 ft 285 kts 221°
2026-05-07 11:56 47.86803 9.85241 14968 ft 286 kts 220°
2026-05-07 11:57 47.85144 9.83601 14594 ft 286 kts 220°
2026-05-07 11:57 47.83485 9.81962 14220 ft 286 kts 220°
2026-05-07 11:57 47.81845 9.80343 13851 ft 286 kts 220°
2026-05-07 11:57 47.80183 9.78704 13476 ft 286 kts 220°
2026-05-07 11:58 47.78532 9.77076 13103 ft 286 kts 220°
2026-05-07 11:58 47.76889 9.75458 12732 ft 285 kts 220°
2026-05-07 11:58 47.75239 9.73834 12358 ft 285 kts 219°
2026-05-07 11:58 47.73589 9.72211 11984 ft 284 kts 219°
2026-05-07 11:59 47.71937 9.70588 11607 ft 284 kts 219°
2026-05-07 11:59 47.70312 9.68992 11237 ft 283 kts 219°
2026-05-07 11:59 47.68669 9.67378 10861 ft 283 kts 219°
2026-05-07 11:59 47.67044 9.65785 10488 ft 282 kts 219°
2026-05-07 12:00 47.65393 9.64167 10108 ft 282 kts 219°
2026-05-07 12:00 47.63786 9.62593 9740 ft 282 kts 219°
2026-05-07 12:00 47.62147 9.60990 9361 ft 282 kts 219°
2026-05-07 12:00 47.60516 9.59396 8984 ft 282 kts 219°
2026-05-07 12:01 47.58884 9.57800 8612 ft 283 kts 219°
2026-05-07 12:01 47.57236 9.56191 8236 ft 284 kts 219°
2026-05-07 12:01 47.55593 9.54587 7849 ft 279 kts 219°
2026-05-07 12:01 47.54201 9.52796 7452 ft 257 kts 240°
2026-05-07 12:02 47.53484 9.50496 7163 ft 236 kts 254°
2026-05-07 12:02 47.52911 9.48262 6785 ft 227 kts 255°
2026-05-07 12:02 47.52376 9.46137 6403 ft 220 kts 255°
2026-05-07 12:02 47.51854 9.44050 6010 ft 214 kts 255°
2026-05-07 12:03 47.51342 9.41994 5613 ft 209 kts 255°
2026-05-07 12:03 47.50848 9.40012 5246 ft 202 kts 255°
2026-05-07 12:03 47.50529 9.38080 5098 ft 193 kts 275°
2026-05-07 12:03 47.50692 9.36107 5066 ft 197 kts 283°
2026-05-07 12:04 47.50930 9.34060 5033 ft 200 kts 283°
2026-05-07 12:04 47.51172 9.32022 5023 ft 202 kts 284°
2026-05-07 12:04 47.51392 9.29953 5017 ft 205 kts 280°
2026-05-07 12:04 47.51545 9.27859 5016 ft 204 kts 279°
2026-05-07 12:05 47.51857 9.25865 4991 ft 199 kts 297°
2026-05-07 12:05 47.52837 9.24471 5001 ft 196 kts 333°
2026-05-07 12:05 47.54164 9.24235 5001 ft 198 kts
2026-05-07 12:05 47.55354 9.25237 4999 ft 203 kts 43°
2026-05-07 12:06 47.55944 9.27126 4989 ft 206 kts 81°
2026-05-07 12:06 47.55687 9.29171 4993 ft 205 kts 120°
2026-05-07 12:06 47.54813 9.30795 5007 ft 200 kts 132°
2026-05-07 12:06 47.53861 9.32300 4958 ft 202 kts 134°
2026-05-07 12:07 47.52882 9.33832 4825 ft 209 kts 131°
2026-05-07 12:07 47.51841 9.35365 4629 ft 217 kts 133°
2026-05-07 12:07 47.50772 9.36938 4495 ft 214 kts 127°
2026-05-07 12:07 47.50052 9.38793 4232 ft 208 kts 105°
2026-05-07 12:08 47.49760 9.40883 3871 ft 208 kts 92°
2026-05-07 12:08 47.49665 9.42956 3493 ft 196 kts 90°
2026-05-07 12:08 47.49590 9.44881 3140 ft 178 kts 91°
2026-05-07 12:08 47.49474 9.46632 2837 ft 163 kts 94°
2026-05-07 12:09 47.49327 9.48188 2577 ft 147 kts 97°
2026-05-07 12:09 47.49177 9.49602 2283 ft 133 kts 96°
2026-05-07 12:09 47.49035 9.50943 2074 ft 131 kts 95°
2026-05-07 12:09 47.48892 9.52317 1877 ft 141 kts 97°
2026-05-07 12:10 47.48733 9.53820 1612 ft 155 kts 98°
2026-05-07 12:10 47.48572 9.55364 1316 ft 144 kts 96°
2026-05-07 12:10 47.48472 9.56391 1319 ft 65 kts 97°
2026-05-07 12:10 47.48427 9.56856 1316 ft 26 kts 97°
2026-05-07 12:11 47.48401 9.57024 1316 ft 7 kts 92°
2026-05-07 12:11 47.48412 9.57020 1316 ft 4 kts 268°
2026-05-07 12:11 47.48414 9.56938 1316 ft 11 kts 275°
2026-05-07 12:11 47.48428 9.56792 1316 ft 18 kts 279°
2026-05-07 12:12 47.48451 9.56582 1318 ft 21 kts 278°
2026-05-07 12:12 47.48476 9.56340 1319 ft 26 kts 279°
2026-05-07 12:12 47.48506 9.56055 1319 ft 29 kts 279°
2026-05-07 12:12 47.48538 9.55747 1319 ft 29 kts 278°
2026-05-07 12:13 47.48565 9.55492 1316 ft 20 kts 278°
2026-05-07 12:13 47.48581 9.55354 1316 ft 8 kts 291°
2026-05-07 12:13 47.48624 9.55332 1316 ft 6 kts
2026-05-07 12:13 47.48666 9.55338 1316 ft 6 kts
2026-05-07 12:14 47.48700 9.55329 1316 ft 4 kts 304°
2026-05-07 12:14 47.48706 9.55287 1316 ft 4 kts 276°
2026-05-07 12:14 47.48709 9.55242 1316 ft 3 kts 275°
2026-05-07 12:14 47.48710 9.55217 1316 ft 1 kts 276°
2026-05-07 12:15 47.48714 9.55209 1316 ft 0 kts 333°
2026-05-07 12:15 47.48718 9.55209 1316 ft 0 kts